Regional Weather Roundup
Issued by NWS

Home | Current Version | Previous Version | Text Only | Print | Product List | Glossary On
Versions: 1 2 3 4 5 6 7 8 9 10 11 12 13 14 15 16 17 18 19 20 21 22 23 24 25 26 27 28 29 30 31 32 33 34 35 36 37 38 39 40 41 42 43 44 45 46 47 48 49 50
000
ASUS43 KBIS 260310
RWRND

NORTH DAKOTA REGIONAL WEATHER ROUNDUP
NATIONAL WEATHER SERVICE BISMARCK ND
900 PM CST TUE NOV 25 2014

NOTE: "FAIR" INDICATES FEW OR NO CLOUDS BELOW 12,000 FEET WITH NO
SIGNIFICANT WEATHER AND/OR OBSTRUCTIONS TO VISIBILITY.


NDZ001>003-009>011-017-260400-
NORTHWEST NORTH DAKOTA

CITY           SKY/WX    TMP DP  RH WIND       PRES   REMARKS
WILLISTON      CLOUDY    19  13  77 N13       30.11R WCI   6
MINOT          CLOUDY    13   9  84 N13       30.06R FOG     WCI  -2
MINOT AFB      DRIZZLE   10   7  85 N10       30.08R WCI  -3
$$

NDZ018>021-031>035-040>046-260400-
SOUTHWEST NORTH DAKOTA

CITY           SKY/WX    TMP DP  RH WIND       PRES   REMARKS
BISMARCK       LGT SNOW  24  19  81 NE26G37   29.89R WCI   8
DICKINSON      CLOUDY    23  19  85 N22G29    29.97R WCI   8
GARRISON         N/A     18  14  84 NE10G24   30.00R WCI   6
HETTINGER ARPT CLOUDY    29  24  82 N31G40    29.90R WCI  13
$$

NDZ004>008-012>016-024-026-027-054-260400-
NORTHEAST NORTH DAKOTA

CITY           SKY/WX    TMP DP  RH WIND       PRES   REMARKS
GRAND FORKS    LGT SNOW  16  12  84 N17       30.06R FOG     WCI   0
GRND FRKS AFB  LGT SNOW  14  10  85 NE16G25   30.07R FOG     WCI  -2
DEVILS LAKE    MOCLDY    12   1  62 NE16      30.03R WCI  -4
$$

NDZ022-023-025-028>030-036>039-047>053-260400-
SOUTHEAST NORTH DAKOTA

CITY           SKY/WX    TMP DP  RH WIND       PRES   REMARKS
FARGO          LGT SNOW  24  18  77 NE8       29.98R WCI  15
JAMESTOWN      LGT SNOW  20  17  88 NE22G28   29.91R FOG     WCI   3
$$



USA.gov is the U.S. government's official web portal to all federal, state and local government web resources and services.